Simultaneous Nadir Overpasses (SNOs) Predictions

Prediction of SNOs between LANDSAT-8 and METOP-A Satellite Orbit:

Table of predicted SNOs for the next 14.0 days since TLE Epoch: 11/24/2018
Index Date (LANDSAT-8) Time (LANDSAT-8) Lat,Lon (LANDSAT-8) SZA (LANDSAT-8 ) Date (METOP-A) Time (METOP-A) Lat,Lon (METOP-A) SZA (METOP-A ) Distance(km) Time Diff (sec)
1 11/26/2018 02:40:38 -81.43, 5.15 74.93 11/26/2018 02:40:00 -81.42, 5.14 74.96 0.73 38
2 11/26/2018 03:30:04 81.43, 172.88 105.09 11/26/2018 03:30:40 81.42, 172.75 105.09 2.38 36
3 11/28/2018 22:14:54 -81.41, 71.24 74.50 11/28/2018 22:14:16 -81.42, 71.31 74.50 1.52 38
4 11/28/2018 23:04:19 81.43,-120.66 105.57 11/28/2018 23:04:55 81.42,-120.72 105.58 1.28 36
5 12/01/2018 17:49:08 -81.41, 137.70 74.07 12/01/2018 17:48:30 -81.42, 137.87 74.06 2.91 38
6 12/01/2018 18:38:33 81.43, -54.22 106.00 12/01/2018 18:39:09 81.43, -54.21 106.01 0.81 36
7 12/04/2018 13:23:22 -81.43,-155.47 73.65 12/04/2018 13:22:45 -81.42,-155.60 73.69 2.43 37
8 12/04/2018 14:12:48 81.43, 12.20 106.36 12/04/2018 14:13:24 81.43, 12.28 106.39 1.50 36
9 12/07/2018 08:57:37 -81.43, -89.05 73.34 12/07/2018 08:57:00 -81.42, -89.09 73.37 1.15 37




NCC Satellite Simultaneous Nadir Overpasses (SNOs) Prediction Service
